Regional Weather Roundup
Issued by NWS Wakefield, VA

Home | Current Version | Previous Version | Text Only | Print | Product List | Glossary On
Versions: 1 2 3 4 5 6 7 8 9 10 11 12 13 14 15 16 17 18 19 20 21 22 23 24 25 26 27 28 29 30 31 32 33 34 35 36 37 38 39 40 41 42 43 44 45 46
000
ASUS41 KAKQ 040114
RWRAKQ

REGIONAL WEATHER ROUNDUP
NATIONAL WEATHER SERVICE WAKEFIELD VA
900 PM EDT THU SEP 03 2015

Note: "fair" indicates few or no clouds below 12,000 feet with no
significant weather and/or obstructions to visibility. * = Denotes
station may not report precipitation (e.g., rain,snow,etc.),
thunder or fog.

VAZ042-051-052>054-056-040200-
NORTHERN VIRGINIA

CITY           SKY/WX    TMP DP  RH WIND       PRES   REMARKS
WASH NATIONAL  CLOUDY    81  71  71 SE3       29.89R
DULLES         CLOUDY    82  70  66 CALM      29.90R
FORT BELVOIR   MOCLDY    78  69  72 CALM      29.89R
QUANTICO       MOCLDY    80  72  76 NW7       29.89R
FREDERICKSBRG* PTCLDY    78  70  76 CALM      29.88R
STAFFORD*      PTCLDY    74  70  87 N3        29.94R
WARRENTON      PTCLDY    77  73  87 CALM      29.90R
CULPEPER*      MOCLDY    77  71  81 NW3       29.91S
MANASSAS*      PTCLDY    82  72  69 CALM      29.90R
LEESBURG*      CLOUDY    81  72  74 W5        29.92R
WINCHESTER     CLOUDY    73  68  83 S3        29.94R
FRONT ROYAL*   FAIR      72  70  94 SW5       29.93R
LURAY*         CLOUDY    72  68  88 CALM      29.96R
$$

VAZ048-049-060>072-079>083-040200-
CENTRAL AND SOUTH CENTRAL VIRGINIA

CITY           SKY/WX    TMP DP  RH WIND       PRES   REMARKS
RICHMOND       PTCLDY    82  71  69 CALM      29.88R
CHESTERFIELD*  FAIR      79  63  57 CALM      29.90R
PETERSBURG*    CLEAR     75  75 100 SW3       29.90R FOG
HANOVER        CLEAR     76  73  91 CALM      29.90R
TAPPAHANNOCK*  CLEAR     76  72  88 CALM      29.89R FOG
QUINTON*       FAIR      77  74  91 MISG      29.88R
CHARLOTTSVILLE PTCLDY    78  69  73 CALM      29.91R
GORDONSVILLE*  FAIR      75  72  89 CALM      29.91R
ORANGE*        PTCLDY    75  70  83 CALM      29.93R
LOUISA*        PTCLDY    75  68  78 CALM      29.90R
BUMPASS*       FAIR      74  73  94 N3        29.90R
FARMVILLE*     MOCLDY    82  67  60 SW6       29.91R
CREWE*         FAIR     N/A N/A N/A CALM      29.90R
FORT PICKETT*  FAIR      76  72  86 CALM      29.91R
CHASE CITY*    FAIR      77  75  93 CALM      29.92R
CLARKSVILLE*   FAIR      73  73 100 W3        29.91R
SOUTH HILL*    PTCLDY    74  73  98 CALM      29.97R
LAWRENCEVILLE* FAIR      75  75 100 CALM      29.90R
EMPORIA*       PTCLDY    73  73 100 CALM      29.91R FOG
$$

VAZ088>098-040200-
SOUTHEAST VIRGINIA

CITY           SKY/WX    TMP DP  RH WIND       PRES   REMARKS
NORFOLK        CLEAR     80  68  66 S5        29.88R
VIRGINIA BEACH PTCLDY    80  70  71 CALM      29.88R
NORFOLK NAVAL  PTCLDY    79  69  71 S5        29.90R
WEST POINT*    PTCLDY    79  72  80 CALM      29.89R
SALUDA*        FAIR      76  71  84 CALM      29.88R
NEWPORT NEWS   CLEAR     76  69  79 CALM      29.89R
LANGLEY AFB    CLEAR     76  69  79 S5        29.88R
FORT EUSTIS    CLEAR     79  75  90 E2        29.87R
WILLIAMSBURG*  FAIR      81  75  83 CALM      29.90R
HR EXEC AP*      N/A     72  70  94 CALM      29.91R
FRANKLIN*      PTCLDY    76  74  93 CALM      29.90R
WAKEFIELD      FAIR      76  71  85 CALM      29.89R HAZE
$$

VAZ020-022-025-037-045-040200-
WEST CENTRAL AND SOUTHWEST VIRGINIA

CITY           SKY/WX    TMP DP  RH WIND       PRES   REMARKS
STAUNTON*      MOCLDY    78  67  68 NW14      29.99R
WAYNESBORO*    FAIR      77  65  67 CALM      29.98R
HOT SPRINGS VA PTCLDY    70  63  78 NW7       30.11R
LYNCHBURG      PTCLDY    75  67  76 CALM      29.95R
DANVILLE       PTCLDY    75  68  78 S3        29.93R
SOUTH BOSTON*  FAIR      75  71  88 CALM      29.92R
MARTINSVILLE   PTCLDY    74  68  80 CALM      29.98R
ROANOKE        PTCLDY    80  67  64 E7        29.98R
BLACKSBURG     PTCLDY    70  69  96 CALM      30.06R
DUBLIN*        CLOUDY    73  67  80 W3        30.05R
MARION*        CLEAR     71  68  90 W3        30.09R
HILLSVILLE*    PTCLDY    73  64  74 NW5       30.06R
RICHLANDS*     FAIR      74  32  21 CALM      30.08R
WISE*          PTCLDY    72  59  64 CALM      30.09S
ABINGDON*      PTCLDY    77  65  67 CALM      30.04R
$$

MDZ021>025-VAZ099-100-040200-
SOUTHERN MARYLAND AND THE DELMARVA PENINSULA

CITY           SKY/WX    TMP DP  RH WIND       PRES   REMARKS
PATUXENT RIVER MOCLDY    74  71  91 SW3       29.87R
BAY BRIDGE APT   N/A     81  73  78 W3        29.88R
LEONARDTOWN    NOT AVBL
DOVER          CLEAR     80  73  79 NE6       29.86R
GEORGETOWN     PTCLDY    79  68  69 SW3       29.87R
EASTON         NOT AVBL
CAMBRIDGE      PTCLDY    77  70  78 CALM      29.87R
SALISBURY      PTCLDY    77  73  87 CALM      29.87R
OCEAN CITY     PTCLDY    79  69  71 SW5       29.87R
WALLOPS ISLAND FAIR      78  74  87 CALM      29.89R
ACCOMACK*      CLEAR     72  64  78 CALM      29.86R
$$

NCZ012>017-030>032-040200-
NORTH CENTRAL AND EASTERN NORTH CAROLINA

CITY           SKY/WX    TMP DP  RH WIND       PRES   REMARKS
ROANOKE RAPIDS FAIR      73  73 100 CALM      29.90R
RALEIGH        MOCLDY    76  70  82 CALM      29.92R
ELIZABETH CITY PTCLDY    75  72  90 CALM      29.90R
AHOSKIE*       MOCLDY    74  72  93 CALM      29.90R
EDENTON*       PTCLDY    78  72  84 CALM      29.89R
CURRITUCK*     PTCLDY    77  70  79 CALM      29.89R
KILL DEVIL HLS PTCLDY    79  72  78 SW5       29.88R
MANTEO         PTCLDY    80  72  76 SW8       29.90R
CAPE HATTERAS  PTCLDY    78  72  81 W5        29.89R
TARBORO*       FAIR      75  73  94 CALM      29.91R FOG
GOLDSBORO      PTCLDY    78  73  86 CALM      29.89R
WASHINGTON     CLEAR     75  71  87 CALM      29.90R
GREENVILLE     CLEAR     75  73  94 CALM      29.92R
NEW BERN       CLEAR     76  73  91 CALM      29.91R
WILMINGTON     MOCLDY    75  70  84 SW3       29.90R
$$

VAZ048-040200-
ELSEWHERE

CITY           SKY/WX    TMP DP  RH WIND       PRES   REMARKS
HARRISBURG PA  MOCLDY    83  65  54 NE3       29.89R
BALTIMORE      MOCLDY    78  68  71 CALM      29.88R
ANNAPOLIS      PTCLDY    81  75  82 NW3       29.87R
ANDREWS AFB    MOCLDY    78  71  77 W3        29.89R
PHILADELPHIA   MOCLDY    84  69  60 S7        29.87R
HENDERSON NC   PTCLDY    76  70  82 CALM      29.92R
GREENSBORO     MOCLDY    80  66  62 NW3       29.95R
ROCKY MOUNT    PTCLDY    76  73  91 CALM      29.91R
$$

VAZ100-040200-
MARINE

STATION/POSITION TIME  TEMP    WIND        PRES    WAVE   SWELL
                       AIR SEA DIR/SP/G            HT/PER HT/PER
                 (UTC) (F)     (DEG/KT/KT) (MB)    (FT/S) (FT/S)
BRANDYWINE LGT   0000   81 77  110/  4/  9 1011.0R
CAPE MAY NJ      0000   78 81  100/  5/  7 1010.5R
LEWES DE         0000   82 78  230/  6/  9 1010.4R
15NM E FENWICK I 0050   81 80  190/  4/  6 1011.6R   1/12   2/12
OCEAN-CITY-INLET 0000   81 79  230/  6/  7 1010.0R
GOOSES REEF MD   0100   82 81  310/  2/  4 1012.6
COVE POINT MD    0000   82     300/  2/  3 1011.8R
SOLOMONS ISLAND  0000      83                N/A
BISHOPS HEAD MD  0000   83 84  260/  5/  6 1010.2R
PINEY POINT MD   0005           CALM  /  1   N/A
POTOMAC MD       0100   83 82  230/  4/  4 1010.5R   1
CAMBRIDGE MD     0000   83 82  250/  5/  7 1010.1R
LEWISETTA VA     0000   83 83  230/  1/  1 1010.7R
RAPPAHANNOCK LGT 0000          210/  7/  8 1011.5R
STINGRAY PT      0100   82 81  220/  4/  4 1012.2R   0
YORK RVR RNG VA  0000   82     190/  7/  7 1010.6R
JAMESTOWN VA     0100   82 83   CALM  /  2   N/A
DOMINION TERM VA 0000   84      90/  3/  5 1011.1R
KIPTOPEKE VA     0000      80  190/  3/  4   N/A
CHES BAY BRIDGE  0000   83 80  130/  4/  4 1010.8R
CHESAPEAKE LGHT  0000   81     190/  5/  5 1011.9R
WILLOUBY STN VA  0000   83      CALM  /  1 1012.2R
CAPE HENRY BUOY  0028      81                N/A     1/13
1ST LANDING BUOY 0100      80              1011.7R   1
CAPE CHARLES BUO 0026      80                N/A     1/12   2/12
OFFSHORE WE BUOY 0041      80                N/A     1/12   2/12
64NM E OF VA BCH 0050   79 79  260/  6/  6 1011.6R   1/13   2/13
DUCK PIER NC     0000   81 81  160/  6/  7 1010.6R
44100 DUCK FRF   0024      81                N/A     1/13
44056 DUCK FRF   0041      80                N/A     1/13
OREGON INLET NC  0000   81 83  190/  7/  8 1011.4R
HATTERAS NC      0000   80 84  230/  5/  8 1011.6R
DIAMOND SHLS NC  0050   81 85  280/  6/  8 1012.4R   1/ 8   2/ 8
CAPE LOOKOUT NC  0100   79     260/  4/  5 1012.2R
$$


USA.gov is the U.S. government's official web portal to all federal, state and local government web resources and services.